When you browse on this site, cookies collect data to enhance your experience and personalize the content and advertising you see.
Visit our Privacy Policy to learn more. By continuing to use the site, you agree to this use of cookies and data.
  • In Romania
  • List of Countries
  • For 7 days
  • Water Temperature
  • Weather Map
  • Weather Widgets
  • user-avatar
    Login

    Hourly Weather Valladolid

    Today, 17 November, Sunday

    Time Temperature Precipitation Wind Pressure Humidity
    00:00 +1°C° 0 mm 3 mps 699 mmHg 90%
    01:00 +1°C° 0 mm 3 mps 699 mmHg 90%
    02:00 +1°C° 0 mm 3 mps 699 mmHg 91%
    03:00 +1°C° 0 mm 3 mps 698 mmHg 91%
    04:00 0°C° 0 mm 4 mps 698 mmHg 91%
    05:00 0°C° 0 mm 4 mps 698 mmHg 91%
    06:00 +2°C° 0 mm 3 mps 697 mmHg 91%
    07:00 +1°C° 0.2 mm 4 mps 697 mmHg 90%
    08:00 +3°C° 0.2 mm 4 mps 697 mmHg 89%
    09:00 +3°C° 0.2 mm 5 mps 697 mmHg 88%
    10:00 +5°C° 0.1 mm 6 mps 697 mmHg 84%
    11:00 +6°C° 0.1 mm 7 mps 697 mmHg 80%
    12:00 +9°C° 0.1 mm 8 mps 697 mmHg 77%
    13:00 +9°C° 0.2 mm 8 mps 696 mmHg 75%
    14:00 +9°C° 0.2 mm 8 mps 696 mmHg 73%
    15:00 +10°C° 0.2 mm 8 mps 695 mmHg 71%
    16:00 +8°C° 0.1 mm 7 mps 695 mmHg 70%
    17:00 +6°C° 0.1 mm 7 mps 695 mmHg 69%
    18:00 +4°C° 0.1 mm 6 mps 695 mmHg 68%
    19:00 +4°C° 0 mm 6 mps 695 mmHg 70%
    20:00 +3°C° 0 mm 5 mps 696 mmHg 73%
    21:00 +3°C° 0 mm 5 mps 696 mmHg 76%
    22:00 +3°C° 0 mm 5 mps 696 mmHg 79%
    23:00 +2°C° 0 mm 5 mps 696 mmHg 82%

    Tomorrow, 18 November, Monday

    Time Temperature Precipitation Wind Pressure Humidity
    00:00 +3°C° 0 mm 4 mps 697 mmHg 85%
    01:00 +1°C° 0 mm 4 mps 697 mmHg 87%
    02:00 +2°C° 0 mm 3 mps 697 mmHg 89%
    03:00 +2°C° 0 mm 3 mps 697 mmHg 91%
    04:00 +3°C° 0 mm 2 mps 697 mmHg 92%
    05:00 +2°C° 0 mm 2 mps 697 mmHg 92%
    06:00 +2°C° 0 mm 2 mps 697 mmHg 93%
    07:00 +3°C° 0 mm 2 mps 698 mmHg 90%
    08:00 +3°C° 0 mm 2 mps 699 mmHg 87%
    09:00 +3°C° 0 mm 3 mps 699 mmHg 83%
    10:00 +5°C° 0 mm 2 mps 699 mmHg 79%
    11:00 +6°C° 0 mm 2 mps 699 mmHg 75%
    12:00 +8°C° 0 mm 1 mps 700 mmHg 70%
    13:00 +8°C° 0 mm 1 mps 699 mmHg 68%
    14:00 +8°C° 0 mm 1 mps 699 mmHg 66%
    15:00 +8°C° 0 mm 1 mps 699 mmHg 63%
    16:00 +8°C° 0 mm 1 mps 700 mmHg 66%
    17:00 +8°C° 0 mm 1 mps 700 mmHg 68%
    18:00 +7°C° 0 mm 1 mps 700 mmHg 71%
    19:00 +6°C° 0 mm 1 mps 700 mmHg 74%
    20:00 +6°C° 0 mm 1 mps 700 mmHg 77%
    21:00 +5°C° 0 mm 1 mps 701 mmHg 80%
    22:00 +4°C° 0 mm 1 mps 700 mmHg 82%
    23:00 +4°C° 0 mm 1 mps 700 mmHg 84%

    Day after tomorrow, 19 November, Tuesday

    Time Temperature Precipitation Wind Pressure Humidity
    00:00 +3°C° 0 mm 0 mps 700 mmHg 86%
    01:00 +3°C° 0 mm 1 mps 700 mmHg 87%
    02:00 +3°C° 0 mm 1 mps 700 mmHg 87%
    03:00 +3°C° 0 mm 1 mps 699 mmHg 88%
    04:00 +3°C° 0 mm 1 mps 699 mmHg 88%
    05:00 +3°C° 0 mm 1 mps 699 mmHg 88%
    06:00 +3°C° 0 mm 1 mps 699 mmHg 88%
    07:00 +4°C° 0 mm 1 mps 699 mmHg 85%
    08:00 +3°C° 0 mm 2 mps 700 mmHg 81%
    09:00 +4°C° 0 mm 2 mps 700 mmHg 77%
    10:00 +5°C° 0 mm 2 mps 700 mmHg 71%
    11:00 +5°C° 0 mm 3 mps 699 mmHg 65%
    12:00 +8°C° 0 mm 3 mps 699 mmHg 59%
    13:00 +8°C° 0 mm 3 mps 699 mmHg 60%
    14:00 +8°C° 0 mm 3 mps 698 mmHg 60%
    15:00 +8°C° 0 mm 3 mps 698 mmHg 61%
    16:00 +7°C° 0 mm 3 mps 698 mmHg 65%
    17:00 +6°C° 0 mm 2 mps 698 mmHg 69%
    18:00 +6°C° 0 mm 2 mps 697 mmHg 73%
    19:00 +6°C° 0 mm 2 mps 698 mmHg 74%
    20:00 +6°C° 0 mm 2 mps 698 mmHg 74%
    21:00 +6°C° 0 mm 2 mps 698 mmHg 75%
    22:00 +5°C° 0.1 mm 3 mps 698 mmHg 77%
    23:00 +5°C° 0.1 mm 3 mps 697 mmHg 79%

    20 November, Wednesday

    Time Temperature Precipitation Wind Pressure Humidity
    00:00 +5°C° 0.1 mm 3 mps 697 mmHg 81%
    01:00 +5°C° 0.1 mm 3 mps 697 mmHg 80%
    02:00 +5°C° 0.1 mm 3 mps 696 mmHg 79%
    03:00 +5°C° 0.1 mm 3 mps 696 mmHg 78%
    04:00 +5°C° 0.3 mm 4 mps 695 mmHg 80%
    05:00 +5°C° 0.3 mm 4 mps 695 mmHg 82%
    06:00 +5°C° 0.3 mm 4 mps 695 mmHg 84%
    07:00 +5°C° 0.1 mm 5 mps 695 mmHg 82%
    08:00 +5°C° 0.1 mm 5 mps 695 mmHg 80%
    09:00 +5°C° 0.1 mm 6 mps 695 mmHg 78%
    10:00 +7°C° 0 mm 6 mps 694 mmHg 73%
    11:00 +8°C° 0 mm 6 mps 694 mmHg 68%
    12:00 +9°C° 0 mm 7 mps 694 mmHg 63%
    13:00 +9°C° 0.1 mm 7 mps 693 mmHg 63%
    14:00 +9°C° 0.1 mm 7 mps 693 mmHg 63%
    15:00 +9°C° 0.1 mm 7 mps 692 mmHg 63%
    16:00 +8°C° 0.7 mm 6 mps 692 mmHg 70%
    17:00 +7°C° 0.7 mm 6 mps 691 mmHg 78%
    18:00 +5°C° 0.7 mm 6 mps 691 mmHg 85%
    19:00 +5°C° 1.2 mm 6 mps 691 mmHg 85%
    20:00 +5°C° 1.2 mm 7 mps 690 mmHg 85%
    21:00 +5°C° 1.2 mm 7 mps 690 mmHg 85%
    22:00 +5°C° 1.3 mm 8 mps 690 mmHg 85%
    23:00 +5°C° 1.3 mm 8 mps 690 mmHg 85%

    21 November, Thursday

    Time Temperature Precipitation Wind Pressure Humidity
    00:00 +5°C° 1.3 mm 8 mps 690 mmHg 86%
    01:00 +4°C° 0.4 mm 7 mps 690 mmHg 86%
    02:00 +4°C° 0.4 mm 6 mps 690 mmHg 87%
    03:00 +3°C° 0.4 mm 5 mps 690 mmHg 88%
    04:00 +4°C° 0 mm 4 mps 690 mmHg 90%
    05:00 +3°C° 0 mm 4 mps 690 mmHg 92%
    06:00 +3°C° 0 mm 4 mps 690 mmHg 94%
    07:00 +3°C° 0 mm 5 mps 691 mmHg 90%
    08:00 +3°C° 0 mm 6 mps 691 mmHg 86%
    09:00 +4°C° 0 mm 7 mps 692 mmHg 82%
    10:00 +5°C° 0.1 mm 7 mps 692 mmHg 76%
    11:00 +6°C° 0.1 mm 7 mps 692 mmHg 70%
    12:00 +7°C° 0.1 mm 8 mps 692 mmHg 64%
    13:00 +6°C° 0.2 mm 7 mps 691 mmHg 68%
    14:00 +6°C° 0.2 mm 7 mps 690 mmHg 73%
    15:00 +5°C° 0.2 mm 6 mps 690 mmHg 78%
    16:00 +5°C° 0.8 mm 6 mps 690 mmHg 81%
    17:00 +4°C° 0.8 mm 6 mps 690 mmHg 85%
    18:00 +4°C° 0.8 mm 6 mps 691 mmHg 89%
    19:00 +5°C° 0.8 mm 5 mps 691 mmHg 88%
    20:00 +5°C° 0.8 mm 5 mps 691 mmHg 87%
    21:00 +5°C° 0.8 mm 5 mps 691 mmHg 86%
    22:00 +3°C° 0.1 mm 5 mps 691 mmHg 87%
    23:00 +3°C° 0.1 mm 5 mps 691 mmHg 87%

    22 November, Friday

    Time Temperature Precipitation Wind Pressure Humidity
    00:00 +3°C° 0.1 mm 5 mps 691 mmHg 88%
    01:00 +3°C° 0 mm 5 mps 691 mmHg 89%
    02:00 +3°C° 0 mm 4 mps 690 mmHg 89%
    03:00 +3°C° 0 mm 4 mps 690 mmHg 90%
    04:00 +3°C° 0 mm 4 mps 690 mmHg 90%
    05:00 +2°C° 0 mm 5 mps 690 mmHg 91%
    06:00 +2°C° 0 mm 5 mps 690 mmHg 91%
    07:00 +2°C° 0 mm 5 mps 691 mmHg 89%
    08:00 +3°C° 0 mm 6 mps 691 mmHg 87%
    09:00 +3°C° 0 mm 7 mps 691 mmHg 85%
    10:00 +4°C° 0.1 mm 7 mps 691 mmHg 81%
    11:00 +4°C° 0.1 mm 7 mps 691 mmHg 77%
    12:00 +5°C° 0.1 mm 8 mps 692 mmHg 73%
    13:00 +5°C° 0 mm 7 mps 691 mmHg 70%
    14:00 +5°C° 0 mm 7 mps 691 mmHg 68%
    15:00 +7°C° 0 mm 6 mps 691 mmHg 66%
    16:00 +6°C° 0.4 mm 5 mps 692 mmHg 73%
    17:00 +5°C° 0.4 mm 5 mps 692 mmHg 81%
    18:00 +4°C° 0.4 mm 4 mps 692 mmHg 88%
    19:00 +3°C° 0.2 mm 3 mps 693 mmHg 90%
    20:00 +4°C° 0.2 mm 2 mps 693 mmHg 91%
    21:00 +3°C° 0.2 mm 2 mps 694 mmHg 93%
    22:00 +3°C° 0 mm 2 mps 694 mmHg 93%
    23:00 +3°C° 0 mm 2 mps 695 mmHg 94%
    Show more